Regional Weather Roundup
Issued by NWS Albany, NY

Home | Current Version | Previous Version | Text Only | Print | Product List | Glossary On
Versions: 1 2 3 4 5 6 7 8 9 10 11 12 13 14 15 16 17 18 19 20 21 22 23 24 25 26 27 28 29 30 31 32 33 34 35 36 37 38 39 40 41 42 43 44 45 46 47 48 49 50
000
ASUS41 KALY 301010
RWRALY

NEW YORK STATE HOURLY WEATHER ROUNDUP
NATIONAL WEATHER SERVICE ALBANY NY
600 AM EDT THU JUL 30 2015

NOTE: "FAIR" INDICATES FEW OR NO CLOUDS BELOW 12,000 FEET WITH NO
SIGNIFICANT WEATHER AND/OR NO OBSTRUCTIONS TO VISIBILITY.

NYZ032-033-038>043-046>054-057>066-NYZ062>081-301100-
EAST


CITY           SKY/WX    TMP DP  RH WIND       PRES   REMARKS
ALBANY         PTCLDY    74  66  76 S9        29.86S
GLENS FALLS    CLEAR     65  63  93 CALM      29.85F
POUGHKEEPSIE   CLOUDY    71  68  90 CALM      29.88S
MONTGOMERY     CLOUDY    72  70  93 CALM      29.90S
WHITE PLAINS   PTCLDY    76  72  87 S3        29.91S
ISLIP          PTCLDY    76  73  91 SW7       29.91S
NEW YORK CITY  PTCLDY    79  71  76 SW8       29.90S
CENTRAL PARK   PTCLDY    79  71  76 VRB3      29.93S
$$

NYZ005>009-017-018-044>046-055-056-301100-
CENTRAL


CITY           SKY/WX    TMP DP  RH WIND       PRES   REMARKS
FULTON         MOCLDY    76  68  76 S8        29.80S
SYRACUSE       MOCLDY    77  70  79 S6        29.80S
ROME           CLEAR     73  66  78 E8        29.84S
ELMIRA         PTCLDY    66  66 100 CALM      29.86S FOG
BINGHAMTON     MOCLDY    70  69  97 S8        29.90F FOG
MONTICELLO     CLOUDY    66  66 100 CALM      29.95S
$$

NYZ026>034-041>043-301100-
NORTH


CITY           SKY/WX    TMP DP  RH WIND       PRES   REMARKS
WATERTOWN      MOCLDY    75  67  76 S6        29.77F HAZE
FORT DRUM      NOT AVBL
MASSENA        CLEAR     68  62  81 S3        29.76F
SARANAC LAKE   CLEAR     56  54  93 CALM      29.86F
PLATTSBURGH    FOG       64  64 100 CALM      29.79F VSB 1/2
$$

NYZ001>004-010>016-019>021-301100-
WEST


CITY           SKY/WX    TMP DP  RH WIND       PRES   REMARKS
NIAGARA FALLS  CLOUDY    75  63  66 W12       29.83R
BUFFALO        CLOUDY    74  70  87 SW8       29.84R
DUNKIRK        CLOUDY    70  66  87 SW8       29.88R
JAMESTOWN      CLOUDY    66  63  88 SW8       29.94R
WELLSVILLE     CLOUDY    72  68  87 SW8       29.94R FOG
ROCHESTER      CLOUDY    76  69  79 SW8       29.82R
PENN YAN       MOCLDY    75  69  81 SW6       29.85S
$$

             KEY
       WCI = WIND CHILL INDEX
       VSB = VISIBILITY
       HX  = HEAT INDEX
$$


USA.gov is the U.S. government's official web portal to all federal, state and local government web resources and services.